| time (UTC) | temp C | wind direction | speed KPH | gust KPH | rain 1hr cm | rain 24hr cm | rain mn cm | humidity % | barometer mb |
| 20260509113005 | 10 | 359 | 1.6 | 3.2 | 0.00 | 0.00 | 0.00 | 87 | 1022.2 |
| 20260509112503 | 10 | 359 | 1.6 | 3.2 | 0.00 | 0.00 | 0.00 | 87 | 1022.2 |
| 20260509111959 | 10 | 359 | 1.6 | 3.2 | 0.00 | 0.00 | 0.00 | 87 | 1022.3 |
| 20260509111436 | 10 | 359 | 1.6 | 3.2 | 0.00 | 0.00 | 0.00 | 87 | 1022.3 |
| 20260509110934 | 10 | 359 | 1.6 | 3.2 | 0.00 | 0.00 | 0.00 | 87 | 1022.3 |
| 20260509110441 | 10 | 359 | 1.6 | 3.2 | 0.00 | 0.00 | 0.00 | 87 | 1022.3 |
| 20260509105416 | 10 | 359 | 0.0 | 1.6 | 0.00 | 0.00 | 0.00 | 87 | 1022.3 |
| 20260509104912 | 10 | 359 | 1.6 | 3.2 | 0.00 | 0.00 | 0.00 | 87 | 1022.3 |
| 20260509104406 | 10 | 359 | 3.2 | 4.8 | 0.00 | 0.00 | 0.00 | 87 | 1022.3 |
| 20260509103904 | 10 | 359 | 1.6 | 4.8 | 0.00 | 0.00 | 0.00 | 87 | 1022.3 |
| 20260509103403 | 10 | 359 | 1.6 | 4.8 | 0.00 | 0.00 | 0.00 | 87 | 1022.3 |
| 20260509103134 | 10 | 9 | 1.6 | 4.8 | 0.00 | 0.00 | 0.00 | 87 | 1022.3 |
| 20260509102639 | 10 | 9 | 1.6 | 4.8 | 0.00 | 0.00 | 0.00 | 87 | 1022.3 |
| 20260509101902 | 10 | 355 | 0.0 | 1.6 | 0.00 | 0.00 | 0.00 | 86 | 1022.3 |
| 20260509101405 | 10 | 355 | 0.0 | 1.6 | 0.00 | 0.00 | 0.00 | 86 | 1022.3 |
| 20260509100907 | 10 | 355 | 1.6 | 3.2 | 0.00 | 0.00 | 0.00 | 86 | 1022.3 |
| 20260509100402 | 10 | 355 | 1.6 | 3.2 | 0.00 | 0.00 | 0.00 | 86 | 1022.3 |
| 20260509095902 | 10 | 355 | 0.0 | 0.0 | 0.00 | 0.00 | 0.00 | 86 | 1022.3 |
| 20260509095403 | 10 | 355 | 0.0 | 0.0 | 0.00 | 0.00 | 0.00 | 86 | 1022.3 |
| 20260509094847 | 10 | 355 | 0.0 | 0.0 | 0.00 | 0.00 | 0.00 | 86 | 1022.3 |
| 20260509094341 | 10 | 355 | 0.0 | 1.6 | 0.00 | 0.00 | 0.00 | 86 | 1022.3 |
| 20260509093837 | 10 | 355 | 1.6 | 3.2 | 0.00 | 0.00 | 0.00 | 86 | 1022.3 |
| 20260509093331 | 10 | 355 | 3.2 | 3.2 | 0.00 | 0.00 | 0.00 | 85 | 1022.3 |
| 20260509092829 | 10 | 355 | 3.2 | 4.8 | 0.00 | 0.00 | 0.00 | 85 | 1022.3 |
| 20260509092329 | 10 | 355 | 3.2 | 4.8 | 0.00 | 0.00 | 0.00 | 85 | 1022.3 |
| 20260509091846 | 11 | 9 | 1.6 | 4.8 | 0.00 | 0.00 | 0.00 | 85 | 1022.5 |
| 20260509090830 | 11 | 296 | 0.0 | 3.2 | 0.00 | 0.00 | 0.00 | 85 | 1022.5 |
| 20260509090325 | 11 | 296 | 1.6 | 3.2 | 0.00 | 0.00 | 0.00 | 85 | 1022.7 |
| 20260509085826 | 11 | 296 | 1.6 | 4.8 | 0.00 | 0.00 | 0.00 | 85 | 1022.7 |
| 20260509085317 | 11 | 298 | 1.6 | 4.8 | 0.00 | 0.00 | 0.00 | 85 | 1022.7 |
| 20260509084812 | 11 | 283 | 1.6 | 4.8 | 0.00 | 0.00 | 0.00 | 86 | 1022.8 |
| 20260509084303 | 11 | 246 | 3.2 | 4.8 | 0.00 | 0.00 | 0.00 | 86 | 1022.8 |
| 20260509084042 | 11 | 232 | 3.2 | 4.8 | 0.00 | 0.00 | 0.00 | 86 | 1022.8 |
| 20260509083305 | 11 | 256 | 1.6 | 4.8 | 0.00 | 0.00 | 0.00 | 86 | 1022.8 |
| 20260509082804 | 10 | 256 | 0.0 | 4.8 | 0.00 | 0.00 | 0.00 | 87 | 1022.8 |
| 20260509082306 | 10 | 36 | 0.0 | 1.6 | 0.00 | 0.00 | 0.00 | 87 | 1022.8 |
| 20260509081806 | 10 | 36 | 1.6 | 1.6 | 0.00 | 0.00 | 0.00 | 87 | 1022.8 |
| 20260509081303 | 10 | 36 | 0.0 | 1.6 | 0.00 | 0.00 | 0.00 | 87 | 1022.8 |
| 20260509080802 | 10 | 36 | 0.0 | 3.2 | 0.00 | 0.00 | 0.00 | 86 | 1022.8 |
| 20260509080301 | 10 | 36 | 1.6 | 3.2 | 0.00 | 0.00 | 0.00 | 86 | 1022.8 |
| 20260509075825 | 10 | 36 | 1.6 | 3.2 | 0.00 | 0.00 | 0.00 | 87 | 1022.8 |
| 20260509074804 | 10 | 36 | 0.0 | 0.0 | 0.00 | 0.00 | 0.00 | 86 | 1022.8 |
| 20260509074305 | 10 | 36 | 0.0 | 1.6 | 0.00 | 0.00 | 0.00 | 86 | 1022.8 |
| 20260509073754 | 10 | 36 | 1.6 | 3.2 | 0.00 | 0.00 | 0.00 | 86 | 1022.8 |
| 20260509073245 | 10 | 36 | 1.6 | 3.2 | 0.00 | 0.00 | 0.00 | 85 | 1022.8 |
| 20260509072742 | 10 | 36 | 0.0 | 1.6 | 0.00 | 0.00 | 0.00 | 85 | 1022.8 |
| 20260509072526 | 10 | 36 | 0.0 | 1.6 | 0.00 | 0.00 | 0.00 | 84 | 1022.8 |
| 20260509071731 | 10 | 36 | 0.0 | 3.2 | 0.00 | 0.00 | 0.00 | 84 | 1022.7 |
| 20260509071232 | 11 | 36 | 1.6 | 3.2 | 0.00 | 0.00 | 0.00 | 84 | 1022.7 |
| 20260509070731 | 11 | 36 | 0.0 | 1.6 | 0.00 | 0.00 | 0.00 | 84 | 1022.7 |
| 20260509070230 | 11 | 27 | 1.6 | 3.2 | 0.00 | 0.00 | 0.00 | 84 | 1022.6 |
| 20260509065729 | 11 | 27 | 1.6 | 3.2 | 0.00 | 0.00 | 0.00 | 83 | 1022.6 |
| 20260509065231 | 11 | 65 | 0.0 | 4.8 | 0.00 | 0.00 | 0.00 | 83 | 1022.6 |
| 20260509064729 | 11 | 65 | 1.6 | 4.8 | 0.00 | 0.00 | 0.00 | 82 | 1022.3 |
| 20260509064226 | 11 | 61 | 1.6 | 4.8 | 0.00 | 0.00 | 0.00 | 82 | 1022.3 |
| 20260509063724 | 11 | 341 | 3.2 | 4.8 | 0.00 | 0.00 | 0.00 | 81 | 1022.3 |
| 20260509063218 | 11 | 328 | 1.6 | 4.8 | 0.00 | 0.00 | 0.00 | 81 | 1022.3 |
| 20260509062713 | 11 | 359 | 1.6 | 3.2 | 0.00 | 0.00 | 0.00 | 80 | 1022.3 |
| 20260509062211 | 11 | 333 | 0.0 | 1.6 | 0.00 | 0.00 | 0.00 | 80 | 1022.3 |
| 20260509061705 | 11 | 333 | 1.6 | 4.8 | 0.00 | 0.00 | 0.00 | 80 | 1022.3 |
| 20260509061202 | 11 | 333 | 3.2 | 4.8 | 0.00 | 0.00 | 0.00 | 79 | 1022.3 |
| 20260509060653 | 12 | 329 | 3.2 | 4.8 | 0.00 | 0.00 | 0.00 | 79 | 1022.3 |
| 20260509060154 | 12 | 325 | 3.2 | 4.8 | 0.00 | 0.00 | 0.00 | 77 | 1022.3 |
| 20260509055659 | 12 | 37 | 3.2 | 4.8 | 0.00 | 0.00 | 0.00 | 77 | 1022.3 |
| 20260509055153 | 12 | 69 | 1.6 | 3.2 | 0.00 | 0.00 | 0.00 | 77 | 1022.3 |
| 20260509054654 | 12 | 183 | 1.6 | 4.8 | 0.00 | 0.00 | 0.00 | 76 | 1022.3 |
| 20260509054138 | 12 | 254 | 1.6 | 6.4 | 0.00 | 0.00 | 0.00 | 76 | 1022.3 |
| 20260509053641 | 12 | 304 | 1.6 | 6.4 | 0.00 | 0.00 | 0.00 | 76 | 1022.3 |
| 20260509053135 | 12 | 280 | 1.6 | 4.8 | 0.00 | 0.00 | 0.00 | 76 | 1022.3 |
| 20260509052634 | 12 | 280 | 3.2 | 4.8 | 0.00 | 0.00 | 0.00 | 76 | 1022.3 |
| 20260509052133 | 12 | 308 | 3.2 | 8.0 | 0.00 | 0.00 | 0.00 | 76 | 1022.3 |
| 20260509051635 | 12 | 311 | 4.8 | 8.0 | 0.00 | 0.00 | 0.00 | 76 | 1022.3 |
| 20260509051135 | 12 | 317 | 4.8 | 8.0 | 0.00 | 0.00 | 0.00 | 76 | 1022.3 |
| 20260509050637 | 12 | 334 | 6.4 | 9.7 | 0.00 | 0.00 | 0.00 | 76 | 1022.3 |
| 20260509050420 | 12 | 334 | 6.4 | 9.7 | 0.00 | 0.00 | 0.00 | 75 | 1022.2 |
| 20260509045631 | 12 | 323 | 6.4 | 11.3 | 0.00 | 0.00 | 0.00 | 75 | 1022.2 |
| 20260509045133 | 12 | 298 | 6.4 | 11.3 | 0.00 | 0.00 | 0.00 | 75 | 1022.2 |
| 20260509044631 | 12 | 325 | 4.8 | 9.7 | 0.00 | 0.00 | 0.00 | 74 | 1021.9 |
| 20260509044131 | 12 | 304 | 4.8 | 11.3 | 0.00 | 0.00 | 0.00 | 74 | 1021.9 |
| 20260509043631 | 12 | 340 | 4.8 | 11.3 | 0.00 | 0.00 | 0.00 | 73 | 1021.9 |
| 20260509043129 | 13 | 327 | 4.8 | 9.7 | 0.00 | 0.00 | 0.00 | 73 | 1021.8 |
| 20260509042624 | 13 | 325 | 4.8 | 9.7 | 0.00 | 0.00 | 0.00 | 73 | 1021.8 |
| 20260509042117 | 13 | 322 | 6.4 | 9.7 | 0.00 | 0.00 | 0.00 | 73 | 1021.8 |
| 20260509041616 | 13 | 303 | 8.0 | 17.7 | 0.00 | 0.00 | 0.00 | 72 | 1021.8 |
| 20260509041115 | 13 | 296 | 9.7 | 17.7 | 0.00 | 0.00 | 0.00 | 72 | 1021.8 |
| 20260509040613 | 13 | 316 | 9.7 | 17.7 | 0.00 | 0.00 | 0.00 | 72 | 1021.8 |
| 20260509040114 | 13 | 332 | 9.7 | 17.7 | 0.00 | 0.00 | 0.00 | 72 | 1021.7 |
| 20260509035611 | 13 | 313 | 11.3 | 20.9 | 0.00 | 0.00 | 0.00 | 72 | 1021.7 |
| 20260509035112 | 13 | 262 | 11.3 | 20.9 | 0.00 | 0.00 | 0.00 | 71 | 1021.7 |
| 20260509034638 | 13 | 305 | 11.3 | 17.7 | 0.00 | 0.00 | 0.00 | 71 | 1021.7 |
| 20260509033903 | 13 | 304 | 11.3 | 20.9 | 0.00 | 0.00 | 0.00 | 69 | 1021.7 |
| 20260509033110 | 13 | 313 | 12.9 | 22.5 | 0.00 | 0.00 | 0.00 | 69 | 1021.6 |
| 20260509032856 | 13 | 309 | 11.3 | 22.5 | 0.00 | 0.00 | 0.00 | 68 | 1021.6 |
| 20260509032109 | 13 | 325 | 9.7 | 16.1 | 0.00 | 0.00 | 0.00 | 68 | 1021.6 |
| 20260509031605 | 13 | 291 | 9.7 | 20.9 | 0.00 | 0.00 | 0.00 | 68 | 1021.5 |
| 20260509031105 | 13 | 300 | 8.0 | 20.9 | 0.00 | 0.00 | 0.00 | 68 | 1021.5 |
| 20260509030605 | 13 | 320 | 9.7 | 20.9 | 0.00 | 0.00 | 0.00 | 68 | 1021.5 |
| 20260509030114 | 13 | 259 | 11.3 | 20.9 | 0.00 | 0.00 | 0.00 | 67 | 1021.4 |
| 20260509025610 | 13 | 275 | 9.7 | 20.9 | 0.00 | 0.00 | 0.00 | 67 | 1021.4 |
| 20260509025357 | 13 | 311 | 11.3 | 20.9 | 0.00 | 0.00 | 0.00 | 66 | 1021.3 |
| 20260509024607 | 13 | 297 | 12.9 | 22.5 | 0.00 | 0.00 | 0.00 | 66 | 1021.3 |
| 20260509024105 | 13 | 316 | 14.5 | 22.5 | 0.00 | 0.00 | 0.00 | 66 | 1021.3 |
| 20260509023559 | 14 | 309 | 14.5 | 24.1 | 0.00 | 0.00 | 0.00 | 64 | 1021.3 |
| 20260509023130 | 14 | 289 | 14.5 | 24.1 | 0.00 | 0.00 | 0.00 | 64 | 1021.2 |
| 20260509022101 | 15 | 296 | 11.3 | 20.9 | 0.00 | 0.00 | 0.00 | 63 | 1021.2 |
| 20260509021604 | 15 | 323 | 12.9 | 20.9 | 0.00 | 0.00 | 0.00 | 63 | 1021.2 |
| 20260509021412 | 15 | 294 | 14.5 | 22.5 | 0.00 | 0.00 | 0.00 | 62 | 1021.2 |
| 20260509020347 | 15 | 323 | 9.7 | 17.7 | 0.00 | 0.00 | 0.00 | 60 | 1021.2 |
| 20260509015556 | 15 | 277 | 11.3 | 17.7 | 0.00 | 0.00 | 0.00 | 61 | 1021.2 |
| 20260509015054 | 15 | 302 | 14.5 | 22.5 | 0.00 | 0.00 | 0.00 | 61 | 1021.2 |
| 20260509014555 | 15 | 262 | 14.5 | 24.1 | 0.00 | 0.00 | 0.00 | 61 | 1021.2 |
| 20260509014056 | 15 | 308 | 12.9 | 24.1 | 0.00 | 0.00 | 0.00 | 60 | 1021.2 |
| 20260509013553 | 15 | 275 | 12.9 | 24.1 | 0.00 | 0.00 | 0.00 | 60 | 1021.2 |
| 20260509013123 | 15 | 328 | 14.5 | 24.1 | 0.00 | 0.00 | 0.00 | 60 | 1021.2 |
| 20260509012052 | 15 | 314 | 12.9 | 24.1 | 0.00 | 0.00 | 0.00 | 61 | 1021.3 |
| 20260509011552 | 15 | 313 | 14.5 | 25.7 | 0.00 | 0.00 | 0.00 | 61 | 1021.3 |
| 20260509011051 | 15 | 306 | 16.1 | 25.7 | 0.00 | 0.00 | 0.00 | 61 | 1021.3 |
| 20260509010545 | 15 | 275 | 17.7 | 27.4 | 0.00 | 0.00 | 0.00 | 61 | 1021.2 |
| 20260509010040 | 15 | 297 | 17.7 | 27.4 | 0.00 | 0.00 | 0.00 | 58 | 1021.2 |
| 20260509005540 | 15 | 270 | 14.5 | 25.7 | 0.00 | 0.00 | 0.00 | 58 | 1021.2 |
| 20260509005324 | 15 | 317 | 14.5 | 24.1 | 0.00 | 0.00 | 0.00 | 58 | 1021.2 |
| 20260509004536 | 15 | 321 | 14.5 | 22.5 | 0.00 | 0.00 | 0.00 | 57 | 1021.2 |
| 20260509004035 | 15 | 297 | 14.5 | 24.1 | 0.00 | 0.00 | 0.00 | 58 | 1021.2 |
| 20260509003537 | 15 | 307 | 12.9 | 24.1 | 0.00 | 0.00 | 0.00 | 57 | 1021.2 |
| 20260509003036 | 15 | 323 | 12.9 | 24.1 | 0.00 | 0.00 | 0.00 | 57 | 1021.2 |
| 20260509002818 | 15 | 315 | 12.9 | 22.5 | 0.00 | 0.00 | 0.00 | 56 | 1021.2 |
| 20260509002032 | 15 | 307 | 14.5 | 22.5 | 0.00 | 0.00 | 0.00 | 56 | 1021.2 |
| 20260509001536 | 15 | 344 | 12.9 | 22.5 | 0.00 | 0.00 | 0.00 | 56 | 1021.2 |
| 20260509001033 | 15 | 281 | 16.1 | 30.6 | 0.00 | 0.00 | 0.00 | 55 | 1021.2 |
| 20260509000534 | 15 | 285 | 17.7 | 30.6 | 0.00 | 0.00 | 0.00 | 55 | 1021.2 |
| 20260509000032 | 16 | 258 | 14.5 | 27.4 | 0.00 | 0.00 | 0.00 | 54 | 1021.2 |
| 20260508235532 | 16 | 282 | 14.5 | 22.5 | 0.00 | 0.00 | 0.00 | 53 | 1021.2 |
| 20260508235032 | 16 | 260 | 12.9 | 22.5 | 0.00 | 0.00 | 0.00 | 53 | 1021.1 |
| 20260508234532 | 16 | 265 | 9.7 | 22.5 | 0.00 | 0.00 | 0.00 | 54 | 1021.1 |
| 20260508234032 | 16 | 323 | 6.4 | 22.5 | 0.00 | 0.00 | 0.00 | 52 | 1021.1 |
| 20260508233530 | 16 | 243 | 4.8 | 11.3 | 0.00 | 0.00 | 0.00 | 53 | 1021.1 |
| 20260508233021 | 16 | 220 | 6.4 | 11.3 | 0.00 | 0.00 | 0.00 | 53 | 1021.1 |
| 20260508232803 | 16 | 250 | 8.0 | 16.1 | 0.00 | 0.00 | 0.00 | 54 | 1021.1 |
| 20260508232016 | 16 | 198 | 8.0 | 19.3 | 0.00 | 0.00 | 0.00 | 53 | 1021.1 |
| 20260508231516 | 16 | 165 | 8.0 | 19.3 | 0.00 | 0.00 | 0.00 | 54 | 1021.1 |
| 20260508231013 | 15 | 248 | 9.7 | 24.1 | 0.00 | 0.00 | 0.00 | 54 | 1021.1 |
| 20260508230513 | 15 | 175 | 11.3 | 24.1 | 0.00 | 0.00 | 0.00 | 54 | 1021.2 |
| 20260508230014 | 15 | 252 | 11.3 | 17.7 | 0.00 | 0.00 | 0.00 | 53 | 1021.2 |
| 20260508225513 | 15 | 253 | 11.3 | 24.1 | 0.00 | 0.00 | 0.00 | 53 | 1021.2 |
| 20260508225012 | 15 | 240 | 12.9 | 24.1 | 0.00 | 0.00 | 0.00 | 53 | 1021.1 |
| 20260508224514 | 15 | 221 | 12.9 | 24.1 | 0.00 | 0.00 | 0.00 | 53 | 1021.1 |
| 20260508224011 | 15 | 251 | 12.9 | 24.1 | 0.00 | 0.00 | 0.00 | 52 | 1021.1 |
| 20260508223510 | 15 | 198 | 9.7 | 24.1 | 0.00 | 0.00 | 0.00 | 52 | 1021.1 |
| 20260508223009 | 15 | 264 | 9.7 | 22.5 | 0.00 | 0.00 | 0.00 | 53 | 1021.1 |
| 20260508222510 | 15 | 267 | 8.0 | 20.9 | 0.00 | 0.00 | 0.00 | 52 | 1021.1 |
| 20260508222008 | 15 | 273 | 9.7 | 17.7 | 0.00 | 0.00 | 0.00 | 52 | 1021.2 |
| 20260508221750 | 15 | 209 | 9.7 | 20.9 | 0.00 | 0.00 | 0.00 | 53 | 1021.2 |
| 20260508221003 | 15 | 252 | 9.7 | 20.9 | 0.00 | 0.00 | 0.00 | 52 | 1021.2 |
| 20260508220502 | 15 | 208 | 11.3 | 25.7 | 0.00 | 0.00 | 0.00 | 53 | 1021.2 |
| 20260508220001 | 15 | 238 | 12.9 | 25.7 | 0.00 | 0.00 | 0.00 | 54 | 1021.2 |
| 20260508215503 | 15 | 217 | 9.7 | 22.5 | 0.00 | 0.00 | 0.00 | 52 | 1021.2 |
| 20260508215001 | 15 | 232 | 9.7 | 19.3 | 0.00 | 0.00 | 0.00 | 53 | 1021.2 |
| 20260508214502 | 15 | 205 | 8.0 | 19.3 | 0.00 | 0.00 | 0.00 | 52 | 1021.2 |
| 20260508214002 | 15 | 252 | 9.7 | 25.7 | 0.00 | 0.00 | 0.00 | 53 | 1021.2 |
| 20260508213506 | 15 | 178 | 9.7 | 25.7 | 0.00 | 0.00 | 0.00 | 52 | 1021.2 |
| 20260508213005 | 15 | 209 | 11.3 | 19.3 | 0.00 | 0.00 | 0.00 | 53 | 1021.2 |
| 20260508212503 | 15 | 304 | 11.3 | 19.3 | 0.00 | 0.00 | 0.00 | 51 | 1021.2 |
| 20260508212245 | 15 | 224 | 12.9 | 24.1 | 0.00 | 0.00 | 0.00 | 51 | 1021.0 |
| 20260508211501 | 15 | 246 | 14.5 | 24.1 | 0.00 | 0.00 | 0.00 | 51 | 1021.0 |
| 20260508211003 | 15 | 212 | 14.5 | 25.7 | 0.00 | 0.00 | 0.00 | 53 | 1021.0 |
| 20260508210743 | 15 | 188 | 12.9 | 25.7 | 0.00 | 0.00 | 0.00 | 51 | 1020.8 |
| 20260508210001 | 15 | 286 | 11.3 | 20.9 | 0.00 | 0.00 | 0.00 | 52 | 1020.8 |
| 20260508205529 | 15 | 231 | 12.9 | 22.5 | 0.00 | 0.00 | 0.00 | 52 | 1020.8 |
| 20260508204501 | 15 | 226 | 9.7 | 22.5 | 0.00 | 0.00 | 0.00 | 52 | 1020.8 |
| 20260508204002 | 15 | 240 | 9.7 | 20.9 | 0.00 | 0.00 | 0.00 | 52 | 1020.8 |
| 20260508203502 | 15 | 238 | 8.0 | 20.9 | 0.00 | 0.00 | 0.00 | 51 | 1020.7 |
| 20260508203250 | 14 | 232 | 8.0 | 19.3 | 0.00 | 0.00 | 0.00 | 54 | 1020.7 |
| 20260508202501 | 14 | 252 | 11.3 | 19.3 | 0.00 | 0.00 | 0.00 | 53 | 1020.7 |
| 20260508202004 | 14 | 206 | 11.3 | 22.5 | 0.00 | 0.00 | 0.00 | 53 | 1020.7 |
| 20260508201504 | 14 | 281 | 8.0 | 22.5 | 0.00 | 0.00 | 0.00 | 54 | 1020.7 |
| 20260508201005 | 14 | 244 | 6.4 | 17.7 | 0.00 | 0.00 | 0.00 | 55 | 1020.7 |
| 20260508200500 | 14 | 204 | 8.0 | 20.9 | 0.00 | 0.00 | 0.00 | 55 | 1020.7 |
| 20260508195957 | 13 | 256 | 11.3 | 20.9 | 0.00 | 0.00 | 0.00 | 55 | 1020.7 |
| 20260508195458 | 13 | 265 | 9.7 | 22.5 | 0.00 | 0.00 | 0.00 | 54 | 1020.7 |
| 20260508194958 | 13 | 234 | 9.7 | 22.5 | 0.00 | 0.00 | 0.00 | 54 | 1020.7 |
| 20260508194458 | 13 | 257 | 9.7 | 25.7 | 0.00 | 0.00 | 0.00 | 55 | 1020.7 |
| 20260508193959 | 13 | 183 | 11.3 | 25.7 | 0.00 | 0.00 | 0.00 | 57 | 1020.7 |
| 20260508193456 | 13 | 248 | 9.7 | 20.9 | 0.00 | 0.00 | 0.00 | 57 | 1020.7 |
| 20260508192958 | 13 | 214 | 11.3 | 22.5 | 0.00 | 0.00 | 0.00 | 58 | 1020.7 |
| 20260508192506 | 13 | 244 | 12.9 | 22.5 | 0.00 | 0.00 | 0.00 | 58 | 1020.7 |
| 20260508191947 | 13 | 205 | 11.3 | 22.5 | 0.00 | 0.00 | 0.00 | 59 | 1020.7 |
| 20260508191433 | 13 | 233 | 11.3 | 22.5 | 0.00 | 0.00 | 0.00 | 59 | 1020.7 |
| 20260508190933 | 13 | 215 | 12.9 | 24.1 | 0.00 | 0.00 | 0.00 | 59 | 1020.7 |
| 20260508190433 | 13 | 241 | 11.3 | 24.1 | 0.00 | 0.00 | 0.00 | 60 | 1020.7 |
| 20260508185931 | 13 | 271 | 9.7 | 19.3 | 0.00 | 0.00 | 0.00 | 60 | 1020.7 |
| 20260508185428 | 13 | 193 | 9.7 | 17.7 | 0.00 | 0.00 | 0.00 | 60 | 1020.7 |
| 20260508184929 | 12 | 215 | 8.0 | 24.1 | 0.00 | 0.00 | 0.00 | 62 | 1020.7 |
| 20260508184429 | 12 | 206 | 9.7 | 24.1 | 0.00 | 0.00 | 0.00 | 61 | 1020.7 |
| 20260508183932 | 12 | 259 | 9.7 | 20.9 | 0.00 | 0.00 | 0.00 | 61 | 1020.7 |
| 20260508183432 | 12 | 199 | 9.7 | 20.9 | 0.00 | 0.00 | 0.00 | 62 | 1020.7 |
| 20260508182934 | 12 | 271 | 9.7 | 22.5 | 0.00 | 0.00 | 0.00 | 62 | 1020.7 |
| 20260508182424 | 12 | 267 | 11.3 | 24.1 | 0.00 | 0.00 | 0.00 | 62 | 1020.7 |
| 20260508181909 | 12 | 214 | 12.9 | 24.1 | 0.00 | 0.00 | 0.00 | 63 | 1020.6 |
| 20260508181409 | 12 | 256 | 11.3 | 25.7 | 0.00 | 0.00 | 0.00 | 63 | 1020.6 |
| 20260508181206 | 12 | 244 | 8.0 | 25.7 | 0.00 | 0.00 | 0.00 | 63 | 1020.6 |
| 20260508180410 | 12 | 231 | 8.0 | 22.5 | 0.00 | 0.00 | 0.00 | 63 | 1020.6 |
| 20260508175911 | 11 | 256 | 9.7 | 22.5 | 0.00 | 0.00 | 0.00 | 63 | 1020.6 |
| 20260508175410 | 11 | 243 | 8.0 | 17.7 | 0.00 | 0.00 | 0.00 | 63 | 1020.6 |
| 20260508174908 | 11 | 223 | 6.4 | 16.1 | 0.00 | 0.00 | 0.00 | 64 | 1020.5 |
| 20260508174441 | 11 | 250 | 8.0 | 20.9 | 0.00 | 0.00 | 0.00 | 65 | 1020.5 |
| 20260508173428 | 11 | 267 | 9.7 | 24.1 | 0.00 | 0.00 | 0.00 | 64 | 1020.2 |
| 20260508172407 | 11 | 209 | 9.7 | 24.1 | 0.00 | 0.00 | 0.00 | 65 | 1020.2 |
| 20260508171904 | 11 | 245 | 9.7 | 24.1 | 0.00 | 0.00 | 0.00 | 64 | 1020.0 |
| 20260508171404 | 11 | 242 | 9.7 | 20.9 | 0.00 | 0.00 | 0.00 | 65 | 1020.0 |
| 20260508170933 | 11 | 197 | 9.7 | 20.9 | 0.00 | 0.00 | 0.00 | 65 | 1020.0 |
| 20260508165907 | 11 | 207 | 11.3 | 20.9 | 0.00 | 0.00 | 0.00 | 64 | 1020.0 |
| 20260508165403 | 11 | 222 | 11.3 | 20.9 | 0.00 | 0.00 | 0.00 | 63 | 1020.0 |
| 20260508164902 | 11 | 265 | 9.7 | 20.9 | 0.00 | 0.00 | 0.00 | 64 | 1019.8 |
| 20260508164401 | 11 | 254 | 11.3 | 24.1 | 0.00 | 0.00 | 0.00 | 63 | 1019.8 |
| 20260508163902 | 11 | 223 | 12.9 | 24.1 | 0.00 | 0.00 | 0.00 | 63 | 1019.8 |
| 20260508163402 | 11 | 250 | 14.5 | 24.1 | 0.00 | 0.00 | 0.00 | 63 | 1019.7 |
| 20260508162901 | 11 | 231 | 14.5 | 27.4 | 0.00 | 0.00 | 0.00 | 63 | 1019.7 |
| 20260508162401 | 11 | 265 | 12.9 | 27.4 | 0.00 | 0.00 | 0.00 | 62 | 1019.7 |
| 20260508161901 | 11 | 224 | 9.7 | 20.9 | 0.00 | 0.00 | 0.00 | 64 | 1019.3 |
| 20260508161403 | 11 | 253 | 9.7 | 20.9 | 0.00 | 0.00 | 0.00 | 65 | 1019.3 |
| 20260508160910 | 11 | 258 | 9.7 | 22.5 | 0.00 | 0.00 | 0.00 | 65 | 1019.3 |
| 20260508160648 | 11 | 242 | 9.7 | 22.5 | 0.00 | 0.00 | 0.00 | 65 | 1019.4 |
| 20260508155843 | 11 | 215 | 9.7 | 19.3 | 0.00 | 0.00 | 0.00 | 66 | 1019.4 |
| 20260508155334 | 11 | 267 | 9.7 | 19.3 | 0.00 | 0.00 | 0.00 | 66 | 1019.4 |
| 20260508154833 | 11 | 260 | 9.7 | 19.3 | 0.00 | 0.00 | 0.00 | 66 | 1019.1 |
| 20260508154335 | 11 | 253 | 8.0 | 19.3 | 0.00 | 0.00 | 0.00 | 67 | 1019.1 |
| 20260508153837 | 11 | 240 | 8.0 | 14.5 | 0.00 | 0.00 | 0.00 | 67 | 1019.1 |
| 20260508153335 | 11 | 231 | 8.0 | 19.3 | 0.00 | 0.00 | 0.00 | 67 | 1019.2 |
| 20260508152834 | 11 | 194 | 8.0 | 19.3 | 0.00 | 0.00 | 0.00 | 67 | 1019.2 |
| 20260508152331 | 11 | 259 | 6.4 | 16.1 | 0.00 | 0.00 | 0.00 | 67 | 1019.2 |
| 20260508151833 | 11 | 199 | 6.4 | 16.1 | 0.00 | 0.00 | 0.00 | 67 | 1019.1 |
| 20260508151337 | 11 | 231 | 8.0 | 17.7 | 0.00 | 0.00 | 0.00 | 64 | 1019.1 |
| 20260508150836 | 11 | 238 | 8.0 | 17.7 | 0.00 | 0.00 | 0.00 | 64 | 1019.1 |
| 20260508150618 | 11 | 263 | 8.0 | 20.9 | 0.00 | 0.00 | 0.00 | 64 | 1019.1 |
| 20260508145830 | 11 | 188 | 6.4 | 20.9 | 0.00 | 0.00 | 0.00 | 66 | 1019.1 |
| 20260508145328 | 11 | 214 | 4.8 | 17.7 | 0.00 | 0.00 | 0.00 | 68 | 1019.1 |
| 20260508144825 | 10 | 150 | 6.4 | 9.7 | 0.00 | 0.00 | 0.00 | 70 | 1019.2 |
| 20260508144317 | 10 | 186 | 8.0 | 14.5 | 0.00 | 0.00 | 0.00 | 71 | 1019.2 |
| 20260508143810 | 10 | 237 | 8.0 | 14.5 | 0.00 | 0.00 | 0.00 | 71 | 1019.2 |
| 20260508143310 | 10 | 185 | 6.4 | 14.5 | 0.00 | 0.00 | 0.00 | 71 | 1019.1 |
| 20260508142808 | 10 | 253 | 4.8 | 9.7 | 0.00 | 0.00 | 0.00 | 74 | 1019.1 |
| 20260508142307 | 10 | 202 | 4.8 | 9.7 | 0.00 | 0.00 | 0.00 | 76 | 1019.1 |
| 20260508142045 | 10 | 220 | 4.8 | 8.0 | 0.00 | 0.00 | 0.00 | 78 | 1018.9 |
| 20260508141308 | 9 | 196 | 3.2 | 6.4 | 0.00 | 0.00 | 0.00 | 80 | 1018.9 |
| 20260508140809 | 9 | 232 | 3.2 | 6.4 | 0.00 | 0.00 | 0.00 | 80 | 1018.9 |
| 20260508140304 | 9 | 219 | 3.2 | 6.4 | 0.00 | 0.00 | 0.00 | 80 | 1018.6 |
| 20260508135805 | 8 | 267 | 4.8 | 8.0 | 0.00 | 0.00 | 0.00 | 80 | 1018.6 |
| 20260508135326 | 8 | 239 | 4.8 | 8.0 | 0.00 | 0.00 | 0.00 | 80 | 1018.6 |
| 20260508134301 | 8 | 249 | 4.8 | 8.0 | 0.00 | 0.00 | 0.00 | 81 | 1018.2 |
| 20260508134040 | 8 | 256 | 3.2 | 8.0 | 0.00 | 0.00 | 0.00 | 81 | 1018.2 |
| 20260508133303 | 8 | 240 | 3.2 | 6.4 | 0.00 | 0.00 | 0.00 | 80 | 1018.1 |
| 20260508132801 | 8 | 196 | 4.8 | 8.0 | 0.00 | 0.00 | 0.00 | 80 | 1018.1 |
| 20260508132306 | 8 | 232 | 4.8 | 8.0 | 0.00 | 0.00 | 0.00 | 81 | 1018.1 |
| 20260508131801 | 8 | 239 | 3.2 | 6.4 | 0.00 | 0.00 | 0.00 | 81 | 1018.0 |
| 20260508131259 | 9 | 255 | 3.2 | 6.4 | 0.00 | 0.00 | 0.00 | 81 | 1018.0 |
| 20260508130758 | 9 | 189 | 3.2 | 6.4 | 0.00 | 0.00 | 0.00 | 81 | 1018.0 |
| 20260508130256 | 8 | 186 | 3.2 | 4.8 | 0.00 | 0.00 | 0.00 | 81 | 1017.6 |
| 20260508125758 | 9 | 145 | 3.2 | 4.8 | 0.00 | 0.00 | 0.00 | 81 | 1017.6 |
| 20260508125253 | 9 | 157 | 3.2 | 6.4 | 0.00 | 0.00 | 0.00 | 81 | 1017.6 |
| 20260508124754 | 8 | 144 | 3.2 | 6.4 | 0.00 | 0.00 | 0.00 | 82 | 1017.6 |
| 20260508124516 | 8 | 148 | 3.2 | 4.8 | 0.00 | 0.00 | 0.00 | 82 | 1017.6 |
| 20260508123746 | 8 | 176 | 3.2 | 4.8 | 0.00 | 0.00 | 0.00 | 83 | 1017.6 |
| 20260508123231 | 8 | 141 | 1.6 | 3.2 | 0.00 | 0.00 | 0.00 | 83 | 1017.6 |
| 20260508122805 | 8 | 165 | 1.6 | 3.2 | 0.00 | 0.00 | 0.00 | 83 | 1017.6 |
| 20260508122025 | 8 | 196 | 1.6 | 3.2 | 0.00 | 0.00 | 0.00 | 83 | 1017.5 |
| 20260508121229 | 8 | 206 | 1.6 | 3.2 | 0.00 | 0.00 | 0.00 | 83 | 1017.5 |
| 20260508120730 | 8 | 250 | 1.6 | 3.2 | 0.00 | 0.00 | 0.00 | 83 | 1017.5 |
| 20260508120229 | 8 | 250 | 1.6 | 3.2 | 0.00 | 0.00 | 0.00 | 83 | 1017.4 |
| 20260508115732 | 8 | 247 | 1.6 | 4.8 | 0.00 | 0.00 | 0.00 | 82 | 1017.4 |
| 20260508115230 | 8 | 220 | 3.2 | 4.8 | 0.00 | 0.00 | 0.00 | 82 | 1017.4 |
| 20260508114729 | 8 | 206 | 1.6 | 4.8 | 0.00 | 0.00 | 0.00 | 82 | 1017.4 |
| 20260508114518 | 8 | 190 | 3.2 | 6.4 | 0.00 | 0.00 | 0.00 | 82 | 1017.4 |
| 20260508113717 | 8 | 264 | 3.2 | 6.4 | 0.00 | 0.00 | 0.00 | 82 | 1017.4 |